sat.trackr.live / text

‹ back to catalog

TIANMU-1 21

NORAD 58662 · 2023-208C

PAYLOAD ACTIVE UNKNOWN

§ Identity

Operator
Country
PRC
Launch date
2023-12-27
Launch site
JSC
Launch vehicle
Mass (kg)
RCS (m²)

Purposes: earth_obs

External: N2YO · Heavens-Above · Gunter

§ Orbital elements

Epoch: 2026-09-19T21:55:42.372768Z

Period
93.71 min
Inclination
97.4584°
Eccentricity
0.0006298
Mean motion
15.36615825 rev/d
Perigee alt
451.8 km
Apogee alt
460.4 km
Semi-major
6,834.3 km
B*
1.9432e-4
RAAN
23.6757°
Arg perigee
348.8481°
Mean anomaly
11.2622°
Rev number
15,210

§ Raw data

TIANMU-1 211 58662U 23208C   26262.91368487  .00006867  00000+0  19432-3 0  99942 58662  97.4584  23.6757 0006298 348.8481  11.2622 15.36615825152102

JSON: /api/v1/satellites/58662 · /tle

For live sub-satellite position, see the globe view (requires WebGL).

§ Visibility from observer

Set your observer location to see the next 7 days of passes ≥ 10°. The values pass through the URL so the page stays shareable.

No JS? Fill the form by hand. The geolocation button needs JavaScript.